{"data":{"norad_id":69647,"intl_designator":"2026-142B","name":"ELECTRON R/B","alt_names":[],"object_type":"ROCKET_BODY","status":"UNKNOWN","operator":null,"country":"US","launch_date":"2026-06-19","launch_site_code":"RLLB","launch_vehicle":null,"mission":null,"orbit_class":"UNKNOWN","rcs_meters":null,"size_class":null,"mass_kg":null,"dimensions":null,"purposes":[],"wikipedia_slug":null,"has_3d_model":false,"image_url":null,"decayed_at":null,"tle_current":{"epoch":"2026-06-28T00:06:53.359200Z","epoch_age_seconds":7331232,"freshness":"OLD","line1":"1 69647U 26142B   26179.00478425  .16131541  20857-5  20639-3 0  9994","line2":"2 69647  97.4163  77.4166 0049479 229.2058 130.4946 16.43710518  1381","mean_motion":16.43710518,"eccentricity":0.0049479,"inclination_deg":97.4163,"raan_deg":77.4166,"arg_perigee_deg":229.2058,"mean_anomaly_deg":130.4946,"bstar":0.00020639,"rev_number":138,"period_min":87.606667003149,"perigee_km":123.62057700281,"apogee_km":188.28060096588,"semimajor_km":6534.0875889843,"source":"CELESTRAK","updated_at":"2026-06-28T09:00:22.524399Z"}}}